Regional Weather Roundup
Issued by NWS Wakefield, VA

Home | Current Version | Previous Version | Text Only | Print | Product List | Glossary On
Versions: 1 2 3 4 5 6 7 8 9 10 11 12 13 14 15 16 17 18 19 20 21 22 23 24 25 26 27 28 29 30 31 32 33 34 35 36 37 38 39 40 41 42 43 44 45 46 47 48 49 50
000
ASUS41 KAKQ 192210
RWRAKQ

REGIONAL WEATHER ROUNDUP
NATIONAL WEATHER SERVICE WAKEFIELD VA
600 PM EDT FRI SEP 19 2014

Note: "fair" indicates few or no clouds below 12,000 feet with no
significant weather and/or obstructions to visibility. * = Denotes
station may not report precipitation (e.g., rain,snow,etc.),
thunder or fog.

VAZ042-051-052>054-056-192300-
NORTHERN VIRGINIA

CITY           SKY/WX    TMP DP  RH WIND       PRES   REMARKS
WASH NATIONAL  PTSUNNY   75  51  43 SE7       30.26R
DULLES         PTSUNNY   71  53  52 SE6       30.25S
FORT BELVOIR   MOSUNNY   70  56  62 VRB1      30.25S
QUANTICO       CLOUDY    76  55  48 SE9       30.25S
FREDERICKSBRG* CLOUDY    74  57  55 E3        30.24R
STAFFORD*      CLOUDY    72  58  61 CALM      30.28S
WARRENTON      MOSUNNY   72  63  72 SE5       30.24S
CULPEPER*      CLOUDY    72  57  60 CALM      30.25S
MANASSAS*      CLOUDY    72  61  68 SE6       30.24
LEESBURG*      CLOUDY    73  57  56 SE5       30.26R
WINCHESTER     CLOUDY    70  54  56 SE7       30.25S
FRONT ROYAL*   CLOUDY    70  57  64 CALM      30.24S
LURAY*         CLOUDY    70  57  64 SW6       30.25S
$$

VAZ048-049-060>072-079>083-192300-
CENTRAL AND SOUTH CENTRAL VIRGINIA...AND NORTH CENTRAL NORTH CAROLINA

CITY           SKY/WX    TMP DP  RH WIND       PRES   REMARKS
RICHMOND       CLOUDY    74  56  53 E6        30.24R
CHESTERFIELD*  CLOUDY   N/A N/A N/A E7        30.25R
PETERSBURG*    CLOUDY    71  59  64 CALM      30.24R
HANOVER        CLOUDY    72  60  66 CALM      30.25R
TAPPAHANNOCK*  SUNNY     75  50  40 E7        30.25R
CHARLOTTSVILLE CLOUDY    66  58  75 CALM      30.25S
ORANGE*        CLOUDY    70  59  68 E3        30.26S
LOUISA*        PTSUNNY   72  63  73 CALM      30.24R
FARMVILLE*     PTSUNNY   70  61  73 CALM      30.23R
CREWE*         MOCLDY    71  60  68 CALM      30.24R
FORT PICKETT*  CLOUDY    72  60  65 E3        30.24R
LUNENBURG*     CLOUDY    72  62  70 CALM      30.24R
SOUTH HILL*    MOSUNNY   73  64  73 CALM      30.28R
LAWRENCEVILLE* MOCLDY    71  62  72 CALM      30.23R
ROANOKE RAPIDS MOCLDY    73  61  64 NE5       30.21S
RALEIGH        PTSUNNY   75  59  57 E8        30.20R
$$

VAZ088>098-192300-
SOUTHEAST VIRGINIA

CITY           SKY/WX    TMP DP  RH WIND       PRES   REMARKS
NORFOLK        SUNNY     73  57  57 E9        30.24R
VIRGINIA BEACH MOSUNNY   73  57  57 E9        30.23R
NORFOLK NAVAL  MOSUNNY   74  57  55 E10       30.25R
WEST POINT*    PTSUNNY   74  60  61 E6        30.26R
NEWPORT NEWS   MOSUNNY   75  57  53 E8        30.24R
LANGLEY AFB    MOSUNNY   73  57  56 E8        30.24R
FORT EUSTIS    MOSUNNY   74  52  46 E8        30.23R
WILLIAMSBURG*  PTSUNNY   73  63  68 E3        30.25R
HR EXEC AP*    CLEAR     75  55  50 E7        30.25R
FRANKLIN*      PTSUNNY   73  59  60 E6        30.23R
WAKEFIELD      SUNNY     74  58  57 E5        30.24R
$$

VAZ020-022-025-037-045-192300-
WEST CENTRAL AND SOUTHWEST VIRGINIA

CITY           SKY/WX    TMP DP  RH WIND       PRES   REMARKS
STAUNTON*      CLOUDY    66  53  63 CALM      30.28S
HOT SPRINGS VA LGT RAIN  51  48  90 SE7       30.32R VSB<1/4
LYNCHBURG      CLOUDY    64  59  83 N7        30.27R
DANVILLE       CLOUDY    69  61  75 NE9       30.23R
SOUTH BOSTON*  NOT AVBL
MARTINSVILLE   CLOUDY    68  63  85 NE3       30.26S
ROANOKE        CLOUDY    62  57  83 N5        30.28R
BLACKSBURG     CLOUDY    61  61 100 E6        30.29R
DUBLIN*        CLOUDY    63  60  91 E8        30.26S
MARION*        CLOUDY    67  58  72 E8        30.24S
HILLSVILLE*    CLOUDY    63  58  85 SE8       30.26R
RICHLANDS*     CLEAR     73  59  63 SE8       30.19R
WISE*          PTSUNNY   72  57  60 CALM      30.17S
ABINGDON*      MOSUNNY   75  58  55 S12       30.17R
$$

MDZ021>025-VAZ099-100-192300-
SOUTHERN MARYLAND AND THE DELMARVA PENINSULA

CITY           SKY/WX    TMP DP  RH WIND       PRES   REMARKS
PATUXENT RIVER PTSUNNY   71  58  63 E16       30.26R
BAY BRIDGE APT   N/A     70  54  56 E9G16     30.27R
LEONARDTOWN    CLOUDY    70  57  64 E7        30.27R
DOVER          MOSUNNY   68  58  72 E14       30.28R
GEORGETOWN     MOSUNNY   70  59  68 E17G25    30.29S
EASTON         MOSUNNY   72  59  64 E8G17     30.31R
CAMBRIDGE      SUNNY     72  57  60 E9G17     30.26S
SALISBURY      MOSUNNY   73  60  63 E10       30.27S
OCEAN CITY     SUNNY     70  61  73 NE12      30.27S
WALLOPS ISLAND MOSUNNY   73  57  57 E6        30.27R
ACCOMACK*      PTSUNNY   70  55  60 E7        30.26R
$$

NCZ012>017-030>032-192300-
EASTERN NORTH CAROLINA

CITY           SKY/WX    TMP DP  RH WIND       PRES   REMARKS
ELIZABETH CITY SUNNY     72  57  59 E12       30.22R
AHOSKIE*       SUNNY     74  58  58 NE3       30.22S
EDENTON*       SUNNY     74  59  59 E6        30.22R
CURRITUCK*     SUNNY     74  54  49 NE6       30.23S
KILL DEVIL HLS SUNNY     73  57  56 NE7       30.20S
MANTEO         SUNNY     73  57  58 NE10      30.21S
CAPE HATTERAS  PTSUNNY   72  61  68 NE13G23   30.17S
TARBORO*       CLEAR     76  58  53 E6        30.22R
GOLDSBORO      PTSUNNY   79  61  53 E6        30.16R
WASHINGTON     MOSUNNY   75  59  57 NE7       30.20R
GREENVILLE     SUNNY     77  61  57 NE9       30.21R
NEW BERN       PTSUNNY   78  60  53 E10       30.19R
WILMINGTON     PTSUNNY   76  65  68 NE9       30.14S
$$

VAZ048-192300-
ELSEWHERE

CITY           SKY/WX    TMP DP  RH WIND       PRES   REMARKS
HARRISBURG PA  PTSUNNY   70  54  56 SE14      30.25F
BALTIMORE      PTSUNNY   70  57  63 E10       30.26S
ANNAPOLIS        N/A     71  58  63 E12       30.26S
ANDREWS AFB    MOSUNNY   71  57  60 E7        30.26R
WILMINGTON DE  MOSUNNY   68  54  60 E9        30.30S
PHILADELPHIA   MOSUNNY   65  53  65 SE13      30.32S
WILDWOOD NJ*   MOSUNNY   68  55  64 NE15      30.31S
ATLANTIC CITY  MOSUNNY   65  57  75 NE9       30.32S
HENDERSON NC   CLOUDY    73  60  65 E3        30.22S
GREENSBORO     PTSUNNY   71  62  73 NE10      30.21R
ROCKY MOUNT    MOSUNNY   76  55  48 VRB5      30.20R
FAYETTEVILLE   MOSUNNY   77  63  61 NE7       30.15R
CHARLOTTE      MOSUNNY   78  56  46 E10G18    30.16S
$$

VAZ100-192300-
MARINE

STATION/POSITION TIME  TEMP    WIND        PRES    WAVE   SWELL
                       AIR SEA DIR/SP/G            HT/PER HT/PER
                 (UTC) (F)     (DEG/KT/KT) (MB)    (FT/S) (FT/S)
44066 TX TWR #4  2200   64 72   70/ 17/ 21 1026.4R   6/ 7   3/10
CAPE MAY NJ      2200   68 76   60/ 10/ 15 1025.3S
LEWES DE         2200   69 73   80/ 16/ 22 1025.3R
15NM E FENWICK I 2100   70 72              1024.6R   5/ 6
OCEAN-CITY-INLET 2200   70 73   80/ 10/ 16 1024.6S
WACHAPREAGUE VA  2200   72 75   80/  8/ 11 1024.4S
THOMAS POINT MD  2200   71 73  100/ 16/ 19 1025.6S
GOOSES REEF MD   2200   72     130/ 12/ 14 1024.9S
COVE POINT MD    2200   71     120/ 13/ 17 1024.3F
SOLOMONS ISLAND  2200      77                N/A
BISHOPS HEAD MD  2200   71 74  100/ 15/ 17 1024.1R
PINEY POINT MD   2200          110/ 12/ 13   N/A
POTOMAC MD       2200   73     110/  8/ 12 1023.6F
CAMBRIDGE MD     2200   71 74   90/ 11/ 14 1024.3F
LEWISETTA VA     2200   73 75   60/  7/  9 1023.9R
RAPPAHANNOCK LGT 2200           90/  8/ 10 1024.8R
STINGRAY PT      2200   73      70/  6/  8   N/A
YORK RVR RNG VA  2200   73     110/  8/ 10 1023.5R
YORKTOWN VA      2200   73 77  120/  9/ 11 1023.7R
JAMESTOWN VA     2200   71     100/  6/  8   N/A
DOMINION TERM VA 2200   73      70/ 10/ 13 1024.0R
KIPTOPEKE VA     2200      80  100/  6/  8   N/A
CHES BAY BRIDGE  2200   72 75   70/ 11/ 12 1023.5R
CAPE HENRY VA    2200   72      90/ 10/ 13 1022.6S
CHESAPEAKE LGHT  2100   72      70/ 13/ 14 1024.3R
WILLOUBY STN VA  2200   72      90/ 11/ 12 1022.6S
S CRANEY ISL VA  2200           30/ 11/ 14 1023.5R
CAPE HENRY BUOY  2200      76                N/A     3/ 6   2/11
1ST LANDING BUOY 2200   73      90/ 10/ 12 1023.4S
CAPE CHARLES BUO 2200      75                N/A     3/10   2/10
OFFSHORE WE BUOY 2200      75                N/A     3/10   2/10
64NM E OF VA BCH 2200   74 75   40/ 16/ 17 1022.9R   3/ 8   2/ 8
DUCK PIER NC     2200   73 75   50/ 15/ 17 1022.5S
44100 DUCK FRF   2100      75                N/A     4/ 5   2/11
44056 DUCK FRF   2100                        N/A     4/ 6   2/11
OREGON INLET NC  2200   73 74   30/ 11/ 15 1022.4R
HATTERAS NC      2200   74 75   30/ 12/ 19 1022.0S
DIAMOND SHLS NC  2200   76      20/ 19/ 25 1020.8R   6/ 6   2/ 9
CAPE LOOKOUT NC  2100   75      40/ 22/ 24 1020.7R
$$



USA.gov is the U.S. government's official web portal to all federal, state and local government web resources and services.